Home   Weather   Wells   Past weeks
Flag for USA

Past Weather in Wells, Maine, USA — Yesterday and Last 2 Weeks

Now
61 °F

Overcast.


Feels Like: 61 °F
Forecast: 64 / 48 °F
Wind: 12 mph from Southwest

Location: Sanford Municipal

Current Time: May 19, 2019 at 12:38:52 pm

Latest Report: May 19, 2019 at 11:56 am


Visibility: 10 mi

Pressure: 30.06 "Hg

Humidity: 67%

Dew Point: 50 °F

Location of WellsLocation

Past Weather in Wells — Graph

°F

Wells Temperature Yesterday

Maximum temperature yesterday: 69 °F (at 2:56 pm)
Minimum temperature yesterday: 43 °F (at 1:43 am)
Average temperature yesterday: 56 °F

High & Low Weather Summary for the Past Weeks

 TemperatureHumidityPressure
High69 °F (May 18, 2:56 pm)100% (May 6, 1:56 am)30.42 "Hg (May 6, 1:56 am)
Low28 °F (May 9, 4:56 am)20% (May 8, 5:56 pm)29.69 "Hg (May 17, 6:56 pm)
Average50 °F75%29.98 "Hg
* Reported May 4 11:56 am — May 19 11:35 am, Wells. Weather by CustomWeather, © 2019

Note: Actual official high and low records may vary slightly from our data, if they occured in-between our weather recording intervals... More about our weather records

Advertising

Wells Weather History for the Previous 24 Hours

Scroll right to see more
 ConditionsComfort  
Time TempWeatherWind HumidityBarometerVisibility
11:35 am
Sun, May 19
61 °FOvercast.8 mph68%30.05 "Hg10 mi
10:56 am59 °FOvercast.8 mph69%30.07 "Hg10 mi
9:56 am59 °FSunny.No wind69%30.08 "Hg10 mi
8:56 am56 °FPassing clouds.5 mph75%30.08 "Hg10 mi
7:56 am54 °FOvercast.3 mph77%30.11 "Hg10 mi
6:56 am51 °FOvercast.3 mph83%30.10 "Hg10 mi
5:56 am49 °FOvercast.No wind90%30.11 "Hg10 mi
4:56 am47 °FOvercast.No wind97%30.11 "Hg10 mi
3:56 am46 °FOvercast.No wind96%30.11 "Hg10 mi
2:56 am45 °FOvercast.No wind97%30.11 "Hg10 mi
1:56 am43 °FPassing clouds.No wind100%30.12 "Hg10 mi
12:56 am43 °FClear.No wind97%30.11 "Hg10 mi
11:56 pm
Sat, May 18
45 °FClear.No wind97%30.11 "Hg10 mi
10:56 pm49 °FPassing clouds.No wind90%30.11 "Hg10 mi
9:56 pm51 °FOvercast.No wind86%30.11 "Hg10 mi
8:56 pm52 °FPassing clouds.No wind80%30.09 "Hg10 mi
7:56 pm54 °FSunny.5 mph74%30.06 "Hg10 mi
6:56 pm59 °FScattered clouds.6 mph58%30.03 "Hg10 mi
5:56 pm61 °FOvercast.9 mph52%30.01 "Hg10 mi
4:56 pm63 °FPartly sunny.10 mph48%29.97 "Hg10 mi
3:56 pm68 °FPassing clouds.3 mph38%29.95 "Hg10 mi
2:56 pm69 °FPassing clouds.9 mph36%29.94 "Hg10 mi
1:56 pm68 °FSunny.10 mph38%29.95 "Hg10 mi
12:56 pm66 °FSunny.12 mph39%29.94 "Hg10 mi
Weather by CustomWeather, © 2019

See weather overview